• In Deutschland
  • Länderverzeichnis
  • Für 7 Tage
  • Wassertemperatur
  • Satellitenkarten
  • Wetterkarte
  • Widgets
  • user-avatar
    Anmelden

    Stündliche Wetter Dubki

    Heute, 23 September, Sonntag

    Zeit Temperatur Niederschläge Wind Luftdruck Luftfeuchtigkeit
    00:00 +8°C° 1.3 mm 4 m/S 737 mmHg 92%
    01:00 +9°C° 1.3 mm 3 m/S 737 mmHg 93%
    02:00 +9°C° 0 mm 3 m/S 737 mmHg 93%
    03:00 +9°C° 1 mm 3 m/S 737 mmHg 93%
    04:00 +9°C° 1 mm 3 m/S 737 mmHg 93%
    05:00 +9°C° 1 mm 3 m/S 737 mmHg 94%
    06:00 +9°C° 0.1 mm 3 m/S 737 mmHg 92%
    07:00 +9°C° 0.1 mm 3 m/S 737 mmHg 91%
    08:00 +8°C° 0 mm 4 m/S 737 mmHg 89%
    09:00 +10°C° 0 mm 4 m/S 737 mmHg 83%
    10:00 +11°C° 0 mm 4 m/S 737 mmHg 76%
    11:00 +12°C° 0 mm 4 m/S 737 mmHg 69%
    12:00 +13°C° 0 mm 4 m/S 737 mmHg 65%
    13:00 +14°C° 0 mm 5 m/S 737 mmHg 61%
    14:00 +14°C° 0 mm 5 m/S 737 mmHg 57%
    15:00 +13°C° 0.2 mm 4 m/S 737 mmHg 63%
    16:00 +12°C° 0.2 mm 4 m/S 737 mmHg 69%
    17:00 +11°C° 0.2 mm 3 m/S 737 mmHg 75%
    18:00 +10°C° 0 mm 3 m/S 737 mmHg 79%
    19:00 +9°C° 0 mm 3 m/S 737 mmHg 83%
    20:00 +8°C° 0 mm 3 m/S 737 mmHg 87%
    21:00 +8°C° 0 mm 2 m/S 737 mmHg 89%
    22:00 +7°C° 0 mm 2 m/S 737 mmHg 90%
    23:00 +7°C° 0 mm 2 m/S 737 mmHg 91%

    Morgen, 24 September, Montag

    Zeit Temperatur Niederschläge Wind Luftdruck Luftfeuchtigkeit
    00:00 +7°C° 0 mm 2 m/S 737 mmHg 93%
    01:00 +6°C° 0 mm 2 m/S 736 mmHg 94%
    02:00 +6°C° 0 mm 2 m/S 736 mmHg 95%
    03:00 +6°C° 0 mm 2 m/S 736 mmHg 95%
    04:00 +6°C° 0 mm 2 m/S 736 mmHg 96%
    05:00 +6°C° 0 mm 2 m/S 736 mmHg 96%
    06:00 +7°C° 0.6 mm 2 m/S 735 mmHg 96%
    07:00 +7°C° 0.6 mm 2 m/S 735 mmHg 95%
    08:00 +8°C° 0.6 mm 3 m/S 735 mmHg 94%
    09:00 +8°C° 1.2 mm 3 m/S 734 mmHg 93%
    10:00 +9°C° 1.2 mm 3 m/S 734 mmHg 92%
    11:00 +9°C° 1.2 mm 3 m/S 733 mmHg 91%
    12:00 +8°C° 1.6 mm 4 m/S 732 mmHg 92%
    13:00 +7°C° 1.6 mm 4 m/S 731 mmHg 92%
    14:00 +7°C° 1.6 mm 4 m/S 730 mmHg 93%
    15:00 +7°C° 3 mm 4 m/S 729 mmHg 94%
    16:00 +7°C° 3 mm 4 m/S 728 mmHg 95%
    17:00 +6°C° 3 mm 4 m/S 726 mmHg 96%
    18:00 +6°C° 2.9 mm 4 m/S 726 mmHg 96%
    19:00 +6°C° 2.9 mm 5 m/S 725 mmHg 96%
    20:00 +6°C° 2.9 mm 5 m/S 724 mmHg 96%
    21:00 +6°C° 2.5 mm 5 m/S 724 mmHg 95%
    22:00 +5°C° 2.5 mm 6 m/S 724 mmHg 94%
    23:00 +5°C° 2.5 mm 6 m/S 724 mmHg 93%

    übermorgen, 25 September, Dienstag

    Zeit Temperatur Niederschläge Wind Luftdruck Luftfeuchtigkeit
    00:00 +5°C° 1.4 mm 7 m/S 724 mmHg 92%
    01:00 +5°C° 1.4 mm 7 m/S 725 mmHg 92%
    02:00 +5°C° 1.4 mm 8 m/S 725 mmHg 91%
    03:00 +5°C° 0.7 mm 8 m/S 726 mmHg 90%
    04:00 +5°C° 0.7 mm 8 m/S 727 mmHg 89%
    05:00 +4°C° 0.7 mm 8 m/S 728 mmHg 89%
    06:00 +4°C° 0.2 mm 8 m/S 729 mmHg 88%
    07:00 +4°C° 0.2 mm 8 m/S 730 mmHg 87%
    08:00 +4°C° 0.2 mm 7 m/S 731 mmHg 87%
    09:00 +4°C° 0.1 mm 7 m/S 732 mmHg 85%
    10:00 +4°C° 0.1 mm 7 m/S 733 mmHg 84%
    11:00 +4°C° 0.1 mm 7 m/S 734 mmHg 83%
    12:00 +4°C° 0.1 mm 7 m/S 735 mmHg 81%
    13:00 +4°C° 0.1 mm 7 m/S 736 mmHg 79%
    14:00 +5°C° 0.1 mm 6 m/S 736 mmHg 77%
    15:00 +5°C° 0 mm 6 m/S 737 mmHg 75%
    16:00 +6°C° 0 mm 5 m/S 738 mmHg 73%
    17:00 +6°C° 0 mm 4 m/S 739 mmHg 71%
    18:00 +5°C° 0 mm 4 m/S 739 mmHg 73%
    19:00 +4°C° 0 mm 4 m/S 740 mmHg 75%
    20:00 +4°C° 0 mm 4 m/S 741 mmHg 76%
    21:00 +3°C° 0 mm 4 m/S 741 mmHg 75%
    22:00 +3°C° 0 mm 4 m/S 742 mmHg 74%
    23:00 +1°C° 0 mm 4 m/S 743 mmHg 73%

    26 September, Mittwoch

    Zeit Temperatur Niederschläge Wind Luftdruck Luftfeuchtigkeit
    00:00 +1°C° 0 mm 4 m/S 743 mmHg 74%
    01:00 0°C° 0 mm 4 m/S 744 mmHg 74%
    02:00 0°C° 0 mm 4 m/S 745 mmHg 75%
    03:00 0°C° 0 mm 4 m/S 745 mmHg 78%
    04:00 0°C° 0 mm 3 m/S 745 mmHg 82%
    05:00 0°C° 0 mm 3 m/S 746 mmHg 85%
    06:00 +1°C° 0 mm 3 m/S 746 mmHg 84%
    07:00 +1°C° 0 mm 4 m/S 747 mmHg 83%
    08:00 +3°C° 0 mm 4 m/S 747 mmHg 82%
    09:00 +5°C° 0 mm 4 m/S 747 mmHg 74%
    10:00 +7°C° 0 mm 4 m/S 747 mmHg 67%
    11:00 +8°C° 0 mm 4 m/S 747 mmHg 59%
    12:00 +10°C° 0 mm 4 m/S 747 mmHg 56%
    13:00 +10°C° 0 mm 4 m/S 747 mmHg 53%
    14:00 +10°C° 0 mm 5 m/S 746 mmHg 50%
    15:00 +10°C° 0 mm 4 m/S 746 mmHg 55%
    16:00 +8°C° 0 mm 4 m/S 745 mmHg 60%
    17:00 +7°C° 0 mm 4 m/S 745 mmHg 66%
    18:00 +7°C° 0.1 mm 5 m/S 744 mmHg 70%
    19:00 +7°C° 0.1 mm 5 m/S 743 mmHg 74%
    20:00 +5°C° 0.1 mm 6 m/S 743 mmHg 78%
    21:00 +5°C° 0.6 mm 6 m/S 742 mmHg 82%
    22:00 +5°C° 0.6 mm 6 m/S 741 mmHg 85%
    23:00 +4°C° 0.6 mm 7 m/S 740 mmHg 89%

    27 September, Donnerstag

    Zeit Temperatur Niederschläge Wind Luftdruck Luftfeuchtigkeit
    00:00 +4°C° 1.4 mm 7 m/S 739 mmHg 89%
    01:00 +4°C° 1.4 mm 7 m/S 738 mmHg 90%
    02:00 +4°C° 1.4 mm 8 m/S 737 mmHg 90%
    03:00 +4°C° 1.6 mm 7 m/S 736 mmHg 91%
    04:00 +5°C° 1.6 mm 7 m/S 735 mmHg 92%
    05:00 +5°C° 1.6 mm 7 m/S 734 mmHg 92%
    06:00 +5°C° 1.2 mm 6 m/S 734 mmHg 93%
    07:00 +7°C° 1.2 mm 5 m/S 734 mmHg 93%
    08:00 +7°C° 1.2 mm 5 m/S 734 mmHg 94%
    09:00 +8°C° 0.4 mm 5 m/S 734 mmHg 90%
    10:00 +9°C° 0.4 mm 5 m/S 734 mmHg 85%
    11:00 +12°C° 0.4 mm 5 m/S 735 mmHg 81%
    12:00 +12°C° 0.1 mm 5 m/S 735 mmHg 74%
    13:00 +12°C° 0.1 mm 5 m/S 735 mmHg 67%
    14:00 +13°C° 0.1 mm 6 m/S 735 mmHg 61%
    15:00 +12°C° 0.1 mm 5 m/S 736 mmHg 65%
    16:00 +11°C° 0.1 mm 4 m/S 736 mmHg 70%
    17:00 +10°C° 0.1 mm 3 m/S 736 mmHg 74%
    18:00 +9°C° 0 mm 3 m/S 736 mmHg 79%
    19:00 +9°C° 0 mm 3 m/S 737 mmHg 83%
    20:00 +8°C° 0 mm 2 m/S 737 mmHg 88%
    21:00 +8°C° 0.3 mm 2 m/S 737 mmHg 90%
    22:00 +8°C° 0.3 mm 2 m/S 737 mmHg 93%
    23:00 +9°C° 0.3 mm 2 m/S 737 mmHg 95%

    28 September, Freitag

    Zeit Temperatur Niederschläge Wind Luftdruck Luftfeuchtigkeit
    00:00 +9°C° 0.4 mm 2 m/S 736 mmHg 95%
    01:00 +9°C° 0.4 mm 2 m/S 736 mmHg 95%
    02:00 +9°C° 0.4 mm 2 m/S 736 mmHg 96%
    03:00 +9°C° 0.2 mm 3 m/S 736 mmHg 95%
    04:00 +9°C° 0.2 mm 3 m/S 735 mmHg 95%
    05:00 +9°C° 0.2 mm 3 m/S 735 mmHg 95%
    06:00 +9°C° 1.3 mm 5 m/S 734 mmHg 93%
    07:00 +10°C° 1.3 mm 6 m/S 733 mmHg 91%
    08:00 +11°C° 1.3 mm 8 m/S 732 mmHg 90%
    09:00 +11°C° 1 mm 8 m/S 731 mmHg 89%
    10:00 +12°C° 1 mm 8 m/S 731 mmHg 89%
    11:00 +12°C° 1 mm 8 m/S 731 mmHg 88%
    12:00 +11°C° 0.7 mm 8 m/S 731 mmHg 87%
    13:00 +11°C° 0.7 mm 7 m/S 732 mmHg 85%
    14:00 +10°C° 0.7 mm 7 m/S 733 mmHg 83%
    15:00 +9°C° 0.1 mm 6 m/S 734 mmHg 84%
    16:00 +7°C° 0.1 mm 5 m/S 735 mmHg 84%
    17:00 +6°C° 0.1 mm 5 m/S 736 mmHg 84%
    18:00 +5°C° 0 mm 4 m/S 737 mmHg 87%
    19:00 +5°C° 0 mm 3 m/S 738 mmHg 90%
    20:00 +5°C° 0 mm 2 m/S 739 mmHg 92%
    21:00 +5°C° 0 mm 2 m/S 739 mmHg 94%
    22:00 +4°C° 0 mm 2 m/S 740 mmHg 95%
    23:00 +4°C° 0 mm 2 m/S 740 mmHg 96%
    Mehr zeigen